DL5MAC-13 Weather Reports


time (UTC)temp
F
wind
direction
speed
knots
gust
knots
rain 1hr
in
rain 24hr
in
rain mn
in
humidity
%
barometer
mb
20260506002030 54 0.0 0.0 0.00 0.12 0.00 83 1011.4
20260506001055 54 0.0 0.0 0.00 0.12 0.00 82 1011.3
20260506000118 54 0.0 0.0 0.00 0.12 0.00 85 1011.3
20260505235038 54 0.0 0.0 0.00 0.12 0.00 87 1011.6
20260505234102 54 0.0 0.0 0.00 0.12 0.00 88 1011.6
20260505233022 54 0.0 0.0 0.00 0.12 0.00 89 1011.6
20260505232043 55 0.0 0.0 0.00 0.12 0.00 89 1011.7
20260505231024 55 0.0 0.0 0.00 0.12 0.00 88 1011.9
20260505230041 55 0.0 0.0 0.00 0.12 0.00 88 1011.7
20260505225110 55 0.0 0.0 0.00 0.12 0.00 88 1011.8
20260505224035 55 0.0 0.0 0.00 0.12 0.00 88 1011.7
20260505223110 55 0.0 0.0 0.00 0.12 0.00 88 1011.6
20260505222031 55 0.0 0.0 0.00 0.12 0.00 87 1011.5
20260505221054 55 0.0 0.0 0.00 0.12 0.00 86 1011.5
20260505220119 55 0.0 0.0 0.00 0.12 0.00 86 1011.5
20260505215034 55 0.0 0.0 0.00 0.12 0.12 86 1011.6
20260505214103 55 0.0 0.0 0.00 0.12 0.12 86 1011.6
20260505213022 54 0.0 0.0 0.00 0.12 0.12 86 1011.6
20260505212044 54 0.0 0.0 0.00 0.12 0.12 86 1011.6
20260505211111 54 0.0 0.0 0.00 0.12 0.12 87 1011.4
20260505210030 54 0.0 0.0 0.00 0.12 0.12 87 1011.4
20260505205054 54 0.0 0.0 0.00 0.12 0.12 87 1011.3
20260505204118 54 0.0 0.0 0.00 0.12 0.12 88 1011.1
20260505203039 54 0.0 0.0 0.00 0.12 0.12 88 1010.9
20260505202103 54 0.0 0.0 0.00 0.12 0.12 89 1010.7
20260505201033 54 0.0 0.0 0.00 0.12 0.12 90 1010.8
20260505200103 54 0.0 0.0 0.00 0.12 0.12 90 1010.5
20260505195034 54 0.0 0.0 0.00 0.12 0.12 90 1010.0
20260505194102 54 0.0 0.0 0.00 0.12 0.12 89 1009.5
20260505193022 54 0.0 0.0 0.00 0.12 0.12 89 1009.5
20260505192043 54 0.0 0.0 0.00 0.12 0.12 88 1009.5
20260505191111 55 0.0 0.0 0.00 0.12 0.12 88 1009.6
20260505190036 55 0.0 0.0 0.00 0.12 0.12 88 1009.5
20260505185111 55 0.0 0.0 0.00 0.12 0.12 88 1009.6
20260505184036 55 0.0 0.0 0.00 0.12 0.12 88 1009.4
20260505183111 56 0.0 0.0 0.00 0.12 0.12 89 1009.3
20260505182031 57 0.0 0.0 0.00 0.12 0.12 90 1009.1
20260505181055 58 0.0 0.0 0.00 0.12 0.12 90 1008.8
20260505180031 59 0.0 0.0 0.00 0.12 0.12 90 1008.9
20260505175054 59 0.0 0.0 0.00 0.12 0.12 90 1008.9
20260505174119 58 0.0 0.0 0.03 0.12 0.12 90 1008.8
20260505173034 58 0.0 0.0 0.08 0.12 0.12 89 1009.0
20260505172102 58 0.0 0.0 0.10 0.12 0.12 89 1008.9
20260505171033 58 0.0 0.0 0.12 0.12 0.12 89 1009.0
20260505170104 58 0.0 0.0 0.12 0.12 0.12 88 1009.1
20260505165034 58 0.0 0.0 0.12 0.12 0.12 86 1009.4
20260505164104 59 0.0 0.0 0.09 0.09 0.09 85 1009.3
20260505163022 60 0.0 0.0 0.04 0.04 0.04 81 1009.7
20260505162041 62 34 0.0 0.9 0.02 0.02 0.02 75 1009.7
20260505161110 63 0.0 0.0 0.00 0.00 0.00 68 1009.5
20260505153055 70 0.0 0.0 0.00 0.00 0.00 52 1008.2
20260505152032 72 0.0 0.0 0.00 0.00 0.00 48 1007.9
20260505151055 72 0.0 0.0 0.00 0.00 0.00 46 1007.8
20260505150119 73 0.0 0.0 0.00 0.00 0.00 44 1007.7
20260505140104 76 0.0 0.0 0.00 0.00 0.00 37 1008.0
20260505124036 76 38 0.0 0.9 0.00 0.00 0.00 39 1008.4
20260505123112 77 74 0.9 1.7 0.00 0.00 0.00 38 1008.4
20260505122031 77 26 0.0 0.9 0.00 0.00 0.00 39 1008.5
20260505121056 77 0.0 0.0 0.00 0.00 0.00 38 1008.7
20260505120120 76 29 0.0 0.9 0.00 0.00 0.00 39 1008.8
20260505115038 76 0.0 0.0 0.00 0.00 0.00 39 1008.8
20260505114119 79 28 0.0 0.9 0.00 0.00 0.00 37 1008.9
20260505113038 79 37 0.0 0.9 0.00 0.00 0.00 36 1009.0
20260505112119 78 0.0 0.0 0.00 0.00 0.00 37 1009.1
20260505111040 76 46 0.0 1.7 0.00 0.00 0.00 40 1009.5
20260505102112 78 0.0 0.0 0.00 0.00 0.00 43 1010.1
20260505101033 79 50 0.0 0.9 0.00 0.00 0.00 41 1010.3
20260505095033 76 51 0.0 0.9 0.00 0.00 0.00 42 1010.4
20260505094103 74 0.0 0.0 0.00 0.00 0.00 47 1010.5
20260505093025 75 0.0 0.0 0.00 0.00 0.00 46 1010.5
20260505092041 76 53 0.0 0.9 0.00 0.00 0.00 45 1010.7
20260505091112 76 0.0 0.0 0.00 0.00 0.00 48 1010.8
20260505090039 77 0.0 0.0 0.00 0.00 0.00 49 1011.0
20260505085113 76 62 0.0 0.9 0.00 0.00 0.00 51 1011.1
20260505084032 75 0.0 0.0 0.00 0.00 0.00 51 1011.0
20260505083056 75 0.0 0.0 0.00 0.00 0.00 51 1011.2
20260505082120 73 0.0 0.0 0.00 0.00 0.00 53 1011.2
20260505081039 71 0.0 0.0 0.00 0.00 0.00 55 1011.2
20260505080104 71 48 0.0 0.9 0.00 0.00 0.00 56 1011.2
20260505075038 69 38 0.0 0.9 0.00 0.00 0.00 57 1011.3
20260505074119 70 0.0 0.0 0.00 0.00 0.00 58 1011.3
20260505073040 69 0.0 0.0 0.00 0.00 0.00 58 1011.3
20260505072016 68 0.0 0.0 0.00 0.00 0.00 59 1011.4
20260505071038 67 0.0 0.0 0.00 0.00 0.00 61 1011.5
20260505070120 65 0.0 0.0 0.00 0.00 0.00 64 1011.6
20260505065039 64 0.0 0.0 0.00 0.00 0.00 64 1011.8
20260505064120 63 0.0 0.0 0.00 0.00 0.00 66 1011.7
20260505063040 64 0.0 0.0 0.00 0.00 0.00 66 1011.8
20260505062104 63 0.0 0.0 0.00 0.00 0.00 67 1011.9
20260505061024 60 0.0 0.0 0.00 0.00 0.00 71 1012.0
20260505060042 57 0.0 0.0 0.00 0.00 0.00 76 1012.1
20260505055112 56 0.0 0.0 0.00 0.00 0.00 79 1012.0
20260505054041 54 0.0 0.0 0.00 0.00 0.00 81 1012.0
20260505053023 53 0.0 0.0 0.00 0.00 0.00 84 1012.0
20260505052046 52 0.0 0.0 0.00 0.00 0.00 86 1012.0
20260505051024 51 0.0 0.0 0.00 0.00 0.00 87 1011.9
20260505041056 50 0.0 0.0 0.00 0.00 0.00 87 1011.9
20260505040120 50 0.0 0.0 0.00 0.00 0.00 87 1012.2
20260505035040 50 0.0 0.0 0.00 0.00 0.00 86 1012.1
20260505034104 51 0.0 0.0 0.00 0.00 0.00 86 1012.0
20260505033034 51 0.0 0.0 0.00 0.00 0.00 85 1012.2
20260505032104 51 0.0 0.0 0.00 0.00 0.00 84 1012.2
20260505031035 52 0.0 0.0 0.00 0.00 0.00 84 1012.4
20260505030105 52 0.0 0.0 0.00 0.00 0.00 84 1012.4
20260505025035 52 0.0 0.0 0.00 0.00 0.00 83 1012.5
20260505024104 52 0.0 0.0 0.00 0.00 0.00 83 1012.5
20260505023024 52 0.0 0.0 0.00 0.00 0.00 82 1012.5
20260505022042 52 0.0 0.0 0.00 0.00 0.00 81 1012.4
20260505021112 53 0.0 0.0 0.00 0.00 0.00 81 1012.6
20260505020032 53 0.0 0.0 0.00 0.00 0.00 80 1012.6
20260505015056 54 0.0 0.0 0.00 0.00 0.00 79 1012.5
20260505014121 54 0.0 0.0 0.00 0.00 0.00 78 1012.5
20260505013040 54 0.0 0.0 0.00 0.00 0.00 77 1012.6
20260505012104 55 0.0 0.0 0.00 0.00 0.00 77 1012.7
20260505011039 55 0.0 0.0 0.00 0.00 0.00 75 1012.7
20260505010104 56 0.0 0.0 0.00 0.00 0.00 74 1012.9
20260505005035 57 0.0 0.0 0.00 0.00 0.00 73 1012.9
20260505004104 57 0.0 0.0 0.00 0.00 0.00 72 1013.0
20260505003035 58 0.0 0.0 0.00 0.00 0.00 71 1013.1